{"data":{"norad_id":62616,"intl_designator":"2025-009H","name":"INNOCUBE (TUBSAT-31)","alt_names":[],"object_type":"PAYLOAD","status":"ACTIVE","operator":null,"country":"GER","launch_date":"2025-01-14","launch_site_code":"AFWTR","launch_vehicle":null,"mission":null,"orbit_class":"UNKNOWN","rcs_meters":null,"size_class":null,"mass_kg":null,"dimensions":null,"purposes":[],"wikipedia_slug":null,"has_3d_model":false,"image_url":null,"decayed_at":null,"tle_current":{"epoch":"2026-05-25T03:23:26.689632Z","epoch_age_seconds":69760,"freshness":"FRESH","line1":"1 62616U 25009H   26145.14128113  .00007067  00000+0  27639-3 0  9995","line2":"2 62616  97.3904 225.3804 0007129  63.9501 296.2470 15.26126922 75303","mean_motion":15.26126922,"eccentricity":0.0007129,"inclination_deg":97.3904,"raan_deg":225.3804,"arg_perigee_deg":63.9501,"mean_anomaly_deg":296.247,"bstar":0.00027639,"rev_number":7530,"period_min":94.35650333151,"perigee_km":482.50914237582,"apogee_km":492.29803014371,"semimajor_km":6865.5405862598,"source":"CELESTRAK","updated_at":"2026-05-25T13:38:03.127773Z"}}}